Regional Weather Roundup
Issued by NWS

Home | Current Version | Previous Version | Graphics & Text | Print | Product List | Glossary On
Versions: 1 2 3 4 5 6 7 8 9 10 11 12 13 14 15 16 17 18 19 20 21 22 23 24 25 26 27 28 29 30 31 32 33 34 35 36 37 38 39 40 41 42 43 44 45 46 47 48 49 50
000
ASUS43 KIND 230400
RWRIN

WEATHER ROUNDUP FOR INDIANA
NATIONAL WEATHER SERVICE INDIANAPOLIS IN
1200 AM EDT WED AUG 23 2017

NOTE: "FAIR" INDICATES FEW OR NO CLOUDS BELOW 12,000 FEET WITH NO
SIGNIFICANT WEATHER AND/OR OBSTRUCTIONS TO VISIBILITY.

* - STATION DOES NOT REPORT WEATHER SUCH AS PRECIPITATION OR FOG.

+ - STATION NOT QUALITY CONTROLLED BY THE NATIONAL WEATHER SERVICE.
    USE DATA WITH CAUTION...ESPECIALLY DEWPOINT AND RELATIVE
    HUMIDITY OBSERVATIONS.

INZ001>003-010>013-019-020-230500-
NORTHWEST INDIANA

CITY           SKY/WX    TMP DP  RH WIND       PRES   REMARKS
MICHIGAN CITY+ MOCLDY    68  52  56 N5        29.99R
MONTICELLO +   CLEAR     62  61  96 CALM      29.99R
RENSSELAER +   CLEAR     63  52  67 W6        30.00R

$$

LMZ046-743>745-230500-
SOUTHERN LAKE MICHIGAN

STATION/POSITION TIME  TEMP    WIND        PRES    WAVE
                       AIR SEA DIR/SP/G            HT
                 (UTC) (F)     (DEG/KT/KT) (MB)    (FT)
BURNS HARBOR     0340   73     330/ 17/ 21 1015.6R
MICHIGAN CITY    0330   72     320/ 19/ 21   N/A
5NW MICH CITY    0350   73 74  340/ 16/ 21   N/A     5

$$

INZ004-005-014>016-021>024-230500-
NORTH CENTRAL INDIANA

CITY           SKY/WX    TMP DP  RH WIND       PRES   REMARKS
GOSHEN         CLEAR     59  55  87 S3        29.98R
SOUTH BEND     PTCLDY    59  59 100 W5        29.99R

$$

INZ006>009-017-018-025>027-230500-
NORTHEAST INDIANA

CITY           SKY/WX    TMP DP  RH WIND       PRES   REMARKS
FORT WAYNE     PTCLDY    61  56  83 NW5       29.97S

$$

INZ028-029-035-036-043>045-051>053-230500-
WEST CENTRAL INDIANA

CITY           SKY/WX    TMP DP  RH WIND       PRES   REMARKS
LAFAYETTE      MOCLDY    64  60  87 NW6       29.99R
TERRE HAUTE    CLEAR     66  59  78 NW3       30.02R

$$

INZ030>032-037>040-046>048-054>057-064-065-230500-
CENTRAL INDIANA

CITY           SKY/WX    TMP DP  RH WIND       PRES   REMARKS
GREENWOOD *+   CLEAR    N/A N/A N/A CALM      29.99S
INDIANAPOLIS   CLEAR     66  61  84 W8        29.98R
-EAGLE CREEK   CLEAR     69  60  73 NW10      29.98R
KOKOMO +       PTCLDY    66  60  81 N5        30.00R
MT COMFORT *+  CLEAR     63  61  94 W3        29.99R
SHELBYVILLE    CLEAR     67  60  78 NW6       29.97R

$$

INZ033-034-041-042-049-050-058-059-230500-
EAST CENTRAL INDIANA

CITY           SKY/WX    TMP DP  RH WIND       PRES   REMARKS
MUNCIE         CLOUDY    67  63  87 CALM      29.98R
RICHMOND +     CLEAR     64  63  94 NW3       29.98S

$$

INZ060-061-067>069-081>083-085>088-230500-
SOUTHWEST INDIANA

CITY           SKY/WX    TMP DP  RH WIND       PRES   REMARKS
EVANSVILLE     CLEAR     72  65  78 NW7       30.01R

$$

INZ062-063-066-070>080-084-089>092-230500-
SOUTH CENTRAL AND SOUTHEAST INDIANA

CITY           SKY/WX    TMP DP  RH WIND       PRES   REMARKS
BLOOMINGTON    PTCLDY    68  59  73 CALM      30.01R
MADISON *+     CLOUDY    70  68  94 CALM      29.99S
SEYMOUR +      PTCLDY    73  61  64 N8        29.98R

$$





USA.gov is the U.S. government's official web portal to all federal, state and local government web resources and services.